[[{"header":{"parameterUnit":"m.s-1","parameterCategory":1,"la1":30.2992,"la2":30.254,"lo1":-89.0895,"lo2":-89.0443,"dy":0.0025,"dx":0.0025,"nx":19,"ny":19,"refTime":"2026-05-22T09:00:00:Z","depth":0,"parameterNumber":2,"parameterNumberName":"U-component_of_WINDS"},"data":[0,0,0,-1.827,-1.827,-1.8247,-1.8247,-1.8229,-1.8229,0,0,0,0,0,0,0,0,0,0,0,-1.8284,-1.8284,-1.827,-1.827,-1.8247,-1.8247,-1.8229,-1.8229,0,0,0,0,0,0,0,0,0,0,0,-1.8284,-1.8284,-1.8284,-1.827,-1.8247,-1.8247,-1.8229,-1.8242,0,0,0,0,0,0,0,0,0,0,-1.8263,-1.8281,-1.8284,-1.8284,-1.827,-1.8247,-1.8246,-1.8243,-1.8241,-1.8244,0,-1.8248,0,-1.8238,-1.8228,-1.8228,0,0,0,-1.8265,-1.8283,-1.827,-1.8284,-1.827,-1.8247,-1.8256,-1.8242,-1.824,-1.8243,-1.8248,-1.8247,-1.8238,-1.8228,-1.8228,-1.8262,-1.8262,0,0,-1.8266,-1.8283,-1.8272,-1.827,-1.8274,-1.8257,-1.8255,-1.8241,-1.8247,-1.8248,-1.8246,-1.8238,-1.8228,-1.8228,-1.8262,-1.8262,0,0,0,-1.8273,-1.8284,-1.8272,-1.8271,-1.8266,-1.8256,-1.8254,-1.8248,-1.8243,-1.8246,-1.8237,-1.8228,-1.8228,-1.8261,-1.8262,-1.8297,0,0,0,-1.8274,-1.8288,-1.8273,-1.8283,-1.8266,-1.8256,-1.8262,-1.8244,-1.8242,-1.8238,-1.8228,-1.8228,-1.8261,-1.8262,-1.8295,-1.8311,0,0,0,-1.8283,-1.8289,-1.8288,-1.8284,-1.8275,-1.8256,-1.825,-1.8243,-1.8237,-1.8228,-1.8228,-1.826,-1.8261,-1.8294,-1.8308,-1.8325,0,0,0,-1.8298,-1.8319,-1.8289,-1.8311,-1.8275,-1.8279,-1.825,-1.8252,-1.8249,-1.8228,-1.8261,-1.8262,-1.8293,-1.8306,-1.8323,-1.8341,-1.835,0,0,-1.8334,-1.8325,-1.8336,-1.8308,-1.8322,-1.8281,-1.83,-1.8281,-1.8265,-1.8264,-1.8265,-1.8296,-1.8308,-1.8324,-1.8399,-1.8407,0,0,0,-1.8353,-1.8362,-1.8362,-1.836,-1.8347,-1.8337,-1.8313,-1.8307,-1.8306,-1.8268,-1.8307,-1.8313,-1.8322,-1.833,-1.8336,-1.8343,-1.8266,-1.8266,-1.8266,-1.8428,-1.8407,-1.8425,-1.8402,-1.8401,-1.8378,-1.8375,-1.8363,-1.8341,-1.8351,-1.835,-1.8398,-1.8408,-1.8413,-1.842,-1.8359,-1.8359,-1.8359,-1.8359,-1.848,-1.8488,-1.8461,-1.8468,-1.8447,-1.8453,-1.8433,-1.8418,-1.8421,-1.8397,-1.8403,-1.8377,-1.8422,-1.8427,-1.8362,-1.8361,-1.8361,-1.8361,-1.8361,-1.8525,-1.8526,-1.8518,-1.8515,-1.8515,-1.8492,-1.8497,-1.8477,-1.8458,-1.8466,-1.8463,-1.8462,-1.8458,-1.8466,-1.8466,-1.8466,-1.8466,-1.8467,-1.8467,-1.8575,-1.8566,-1.8572,-1.8562,-1.8559,-1.8553,-1.8533,-1.853,-1.8521,-1.8507,-1.8506,-1.8484,-1.843,-1.8417,-1.8469,-1.8469,-1.8468,-1.8468,-1.8468,-1.8633,-1.8617,-1.8627,-1.8624,-1.8612,-1.8614,-1.859,-1.8586,-1.8581,-1.8584,-1.8562,-1.8525,-1.8513,-1.8508,-1.8496,-1.8566,-1.8566,-1.8566,-1.8566,-1.8671,-1.8664,-1.867,-1.8668,-1.8663,-1.8643,-1.8656,-1.8641,-1.8623,-1.8619,-1.8607,-1.859,-1.8586,-1.8576,-1.857,-1.8558,-1.8643,-1.8643,-1.8643,-1.8706,-1.8697,-1.8711,-1.8694,-1.8683,-1.8675,-1.8687,-1.8686,-1.8662,-1.8645,-1.8616,-1.8612,-1.8586,-1.8578,-1.8558,-1.8548,-1.8527,0,0]},{"header":{"parameterUnit":"m.s-1","parameterCategory":1,"la1":30.2992,"la2":30.254,"lo1":-89.0895,"lo2":-89.0443,"dy":0.0025,"dx":0.0025,"nx":19,"ny":19,"refTime":"2026-05-22T09:00:00:Z","depth":0,"parameterNumber":3,"parameterNumberName":"V-component_of_WINDS"},"data":[0,0,0,3.5384,3.5385,3.5447,3.5447,3.5513,3.5514,0,0,0,0,0,0,0,0,0,0,0,3.5358,3.5358,3.5384,3.5386,3.5447,3.5447,3.5513,3.5514,0,0,0,0,0,0,0,0,0,0,0,3.5358,3.5358,3.5358,3.5386,3.5447,3.5447,3.5513,3.5471,0,0,0,0,0,0,0,0,0,0,3.5414,3.5382,3.5358,3.5358,3.5386,3.5447,3.5447,3.5469,3.5474,3.548,0,3.5483,0,3.5499,3.5517,3.5518,0,0,0,3.5392,3.5378,3.5402,3.5358,3.5387,3.5447,3.5421,3.5472,3.5477,3.5486,3.5484,3.5487,3.55,3.5518,3.5518,3.5534,3.5533,0,0,3.5388,3.5365,3.5398,3.5405,3.5394,3.5419,3.5423,3.5475,3.5472,3.5484,3.5489,3.5502,3.5518,3.5518,3.5534,3.5534,0,0,0,3.5374,3.5362,3.5385,3.5401,3.5413,3.5421,3.5425,3.547,3.5479,3.5489,3.5502,3.5518,3.5519,3.5534,3.5534,3.5501,0,0,0,3.5373,3.5354,3.5383,3.537,3.5412,3.5442,3.5418,3.5475,3.5482,3.5502,3.5518,3.552,3.5534,3.5534,3.5503,3.549,0,0,0,3.5357,3.5352,3.5359,3.5368,3.5394,3.5442,3.5455,3.5477,3.549,3.5518,3.552,3.5535,3.5534,3.5504,3.5492,3.5487,0,0,0,3.5333,3.5328,3.5358,3.5357,3.5393,3.5421,3.5455,3.5477,3.5497,3.5519,3.5534,3.5534,3.5504,3.5493,3.5489,3.548,3.5474,0,0,3.5314,3.5325,3.5326,3.5355,3.5372,3.5414,3.5426,3.5467,3.549,3.5518,3.5519,3.5502,3.5492,3.5488,3.5448,3.5443,0,0,0,3.5312,3.5313,3.5323,3.5341,3.5372,3.5398,3.5439,3.5454,3.5479,3.55,3.55,3.5495,3.5493,3.549,3.5486,3.5487,3.5531,3.5531,3.5531,3.525,3.5282,3.5287,3.5327,3.5344,3.5387,3.5405,3.5433,3.5459,3.5458,3.5467,3.5439,3.5434,3.5431,3.5431,3.5464,3.5464,3.5464,3.5464,3.5225,3.5231,3.5268,3.5286,3.532,3.5335,3.5377,3.5396,3.5415,3.5435,3.5435,3.5454,3.5425,3.5427,3.5462,3.5462,3.5463,3.5463,3.5463,3.5188,3.5197,3.5216,3.5247,3.5267,3.5308,3.5325,3.5356,3.5384,3.5384,3.5397,3.5397,3.5402,3.5388,3.5388,3.5388,3.5388,3.5388,3.5388,3.5142,3.5165,3.5176,3.521,3.5226,3.5252,3.5297,3.5314,3.5341,3.5361,3.5362,3.5388,3.5416,3.5422,3.5386,3.5387,3.5387,3.5387,3.5387,3.5104,3.5118,3.5135,3.5152,3.5195,3.5214,3.5253,3.5286,3.5304,3.5312,3.534,3.5355,3.5369,3.5372,3.5378,3.5332,3.5332,3.5332,3.5332,3.5073,3.5083,3.5109,3.5133,3.5161,3.5199,3.5218,3.5254,3.5292,3.5306,3.5317,3.5327,3.5329,3.5342,3.5346,3.5352,3.5301,3.5301,3.5301,3.5052,3.5067,3.5077,3.5115,3.5152,3.5182,3.5202,3.523,3.5277,3.53,3.5318,3.5319,3.5336,3.5339,3.5362,3.5368,3.5379,0,0]}]]